Precipitable_Water
0.53 0.53 0.55 0.55 0.51 0.46 0.45 0.43 0.40 0.39 0.38 0.45 0.46 0.45 0.44 0.46 0.46 0.47 0.29 0.42 0.46 0.74 1.01 0.95 0.95 1.08 1.13 1.11 1.08 1.10 0.80 0.65 0.69 0.76 0.74 0.79 0.68 0.82 0.93 0.88 0.99 1.09 1.11 1.22 1.35
0.54 0.52 0.50 0.51 0.52 0.52 0.46 0.44 0.43 0.40 0.38 0.39 0.46 0.45 0.44 0.46 0.35 0.28 0.36 0.38 0.54 0.72 0.74 0.76 0.79 0.97 0.91 0.86 0.90 0.87 0.83 0.73 0.77 0.80 0.86 0.85 0.78 0.74 0.74 0.80 0.87 0.98 1.15 1.26 1.30
0.54 0.54 0.52 0.49 0.48 0.48 0.49 0.49 0.45 0.42 0.41 0.38 0.41 0.48 0.45 0.48 0.26 0.25 0.41 0.40 0.48 0.68 0.67 0.74 0.77 0.84 0.69 0.66 0.70 0.73 0.74 0.82 0.81 0.79 0.92 0.85 0.87 0.82 0.69 0.68 0.80 0.84 1.01 1.13 1.20
0.51 0.51 0.52 0.51 0.50 0.47 0.47 0.46 0.48 0.46 0.43 0.42 0.40 0.43 0.47 0.41 0.14 0.28 0.46 0.43 0.49 0.59 0.59 0.60 0.63 0.59 0.53 0.55 0.63 0.62 0.65 0.67 0.72 0.78 0.86 0.83 0.90 0.75 0.70 0.73 0.88 0.96 1.04 1.08 1.11
0.53 0.50 0.49 0.49 0.50 0.49 0.48 0.47 0.45 0.47 0.46 0.44 0.45 0.44 0.37 0.27 0.20 0.35 0.40 0.48 0.50 0.53 0.41 0.49 0.48 0.52 0.47 0.53 0.57 0.56 0.58 0.59 0.62 0.72 0.82 0.91 0.83 0.86 0.72 0.80 0.93 0.99 1.02 1.01 1.07
0.53 0.53 0.50 0.48 0.46 0.45 0.46 0.47 0.46 0.44 0.45 0.49 0.48 0.49 0.31 0.15 0.28 0.36 0.48 0.51 0.47 0.41 0.35 0.42 0.47 0.49 0.46 0.49 0.53 0.57 0.56 0.57 0.58 0.67 0.78 0.75 0.81 0.84 0.75 0.86 0.89 0.93 0.95 0.99 1.04
0.51 0.49 0.50 0.51 0.48 0.45 0.43 0.43 0.43 0.42 0.44 0.48 0.58 0.47 0.31 0.19 0.29 0.32 0.36 0.40 0.45 0.39 0.31 0.39 0.46 0.46 0.48 0.49 0.56 0.59 0.55 0.65 0.62 0.68 0.71 0.84 0.74 0.70 0.88 0.90 0.85 0.86 0.92 0.96 1.00
0.47 0.45 0.44 0.45 0.47 0.48 0.45 0.43 0.43 0.44 0.47 0.53 0.61 0.53 0.28 0.40 0.38 0.33 0.40 0.38 0.39 0.46 0.37 0.41 0.43 0.45 0.44 0.56 0.55 0.54 0.56 0.53 0.62 0.71 0.76 0.80 0.61 0.79 0.93 0.84 0.81 0.82 0.84 0.88 0.95
0.48 0.45 0.42 0.41 0.41 0.42 0.44 0.44 0.49 0.56 0.56 0.57 0.53 0.47 0.28 0.50 0.37 0.43 0.43 0.30 0.35 0.37 0.33 0.35 0.39 0.41 0.45 0.46 0.46 0.52 0.45 0.50 0.56 0.76 0.77 0.76 0.68 0.87 0.98 0.90 0.82 0.79 0.79 0.83 0.91
0.51 0.47 0.42 0.40 0.38 0.38 0.40 0.43 0.59 0.65 0.66 0.67 0.62 0.39 0.37 0.30 0.46 0.41 0.46 0.32 0.32 0.32 0.25 0.26 0.31 0.34 0.38 0.38 0.33 0.42 0.44 0.50 0.50 0.66 0.75 0.70 0.75 0.86 0.99 0.96 0.86 0.82 0.82 0.80 0.82
0.49 0.45 0.41 0.40 0.37 0.37 0.38 0.34 0.38 0.40 0.48 0.30 0.33 0.29 0.33 0.38 0.44 0.41 0.43 0.28 0.29 0.26 0.15 0.19 0.21 0.24 0.33 0.38 0.43 0.47 0.49 0.51 0.57 0.76 0.73 0.70 0.70 0.79 0.94 0.99 0.94 0.88 0.83 0.79 0.76
0.52 0.49 0.43 0.39 0.36 0.40 0.36 0.24 0.28 0.30 0.20 0.25 0.25 0.23 0.29 0.34 0.25 0.30 0.42 0.27 0.23 0.19 0.18 0.16 0.15 0.25 0.34 0.39 0.42 0.44 0.45 0.48 0.59 0.77 0.71 0.70 0.70 0.78 0.88 0.93 0.97 0.99 0.86 0.85 0.80
0.54 0.52 0.47 0.40 0.37 0.39 0.30 0.33 0.35 0.32 0.21 0.20 0.24 0.22 0.24 0.26 0.23 0.23 0.35 0.31 0.23 0.19 0.18 0.15 0.14 0.24 0.29 0.30 0.38 0.43 0.41 0.48 0.60 0.68 0.72 0.70 0.65 0.69 0.80 0.92 0.99 1.05 1.02 0.94 0.90
0.61 0.57 0.52 0.44 0.34 0.32 0.33 0.39 0.37 0.35 0.18 0.19 0.22 0.27 0.34 0.35 0.26 0.32 0.30 0.30 0.26 0.19 0.20 0.15 0.16 0.17 0.24 0.27 0.37 0.36 0.43 0.50 0.59 0.61 0.51 0.67 0.47 0.57 0.69 0.76 0.86 0.95 1.00 0.93 0.98
0.67 0.58 0.58 0.53 0.37 0.31 0.34 0.34 0.36 0.37 0.14 0.25 0.26 0.42 0.37 0.30 0.30 0.28 0.31 0.31 0.24 0.22 0.23 0.17 0.14 0.15 0.16 0.22 0.32 0.35 0.46 0.48 0.52 0.56 0.57 0.64 0.55 0.54 0.66 0.65 0.73 0.84 0.94 0.96 0.92
0.72 0.63 0.61 0.52 0.49 0.39 0.40 0.37 0.41 0.25 0.17 0.23 0.29 0.26 0.26 0.29 0.28 0.30 0.26 0.32 0.34 0.27 0.27 0.22 0.22 0.16 0.15 0.20 0.33 0.41 0.44 0.47 0.49 0.48 0.41 0.53 0.54 0.44 0.51 0.57 0.62 0.78 0.88 0.99 0.94
0.72 0.64 0.57 0.59 0.40 0.45 0.41 0.31 0.24 0.19 0.29 0.23 0.24 0.28 0.24 0.23 0.26 0.27 0.23 0.22 0.24 0.22 0.21 0.21 0.20 0.17 0.15 0.16 0.29 0.39 0.41 0.36 0.34 0.35 0.35 0.51 0.48 0.44 0.51 0.57 0.56 0.62 0.78 0.94 0.99
0.71 0.64 0.62 0.57 0.58 0.51 0.37 0.25 0.20 0.24 0.25 0.30 0.30 0.30 0.25 0.25 0.25 0.26 0.23 0.20 0.26 0.27 0.24 0.20 0.15 0.20 0.18 0.15 0.25 0.32 0.37 0.33 0.28 0.30 0.35 0.46 0.39 0.38 0.56 0.58 0.55 0.62 0.69 0.91 0.94
0.72 0.61 0.58 0.60 0.62 0.55 0.33 0.22 0.23 0.26 0.30 0.27 0.29 0.28 0.28 0.28 0.25 0.27 0.27 0.23 0.24 0.29 0.23 0.24 0.21 0.26 0.20 0.19 0.24 0.30 0.33 0.42 0.38 0.40 0.34 0.35 0.43 0.44 0.52 0.54 0.54 0.53 0.63 0.77 0.86
0.64 0.60 0.56 0.66 0.74 0.55 0.32 0.25 0.25 0.26 0.31 0.35 0.26 0.27 0.25 0.27 0.26 0.25 0.26 0.28 0.27 0.33 0.37 0.32 0.24 0.27 0.25 0.22 0.21 0.30 0.39 0.35 0.36 0.31 0.30 0.32 0.35 0.37 0.43 0.42 0.46 0.54 0.55 0.66 0.80
0.57 0.47 0.64 0.77 0.73 0.51 0.32 0.29 0.29 0.28 0.30 0.31 0.29 0.29 0.30 0.28 0.29 0.26 0.27 0.31 0.32 0.34 0.38 0.38 0.31 0.23 0.26 0.18 0.16 0.21 0.30 0.36 0.39 0.35 0.30 0.31 0.31 0.42 0.41 0.46 0.46 0.50 0.55 0.60 0.71
0.48 0.35 0.60 0.68 0.48 0.44 0.38 0.38 0.36 0.31 0.29 0.28 0.30 0.29 0.30 0.33 0.30 0.28 0.28 0.29 0.36 0.39 0.37 0.42 0.37 0.25 0.18 0.19 0.20 0.24 0.26 0.35 0.32 0.31 0.35 0.32 0.30 0.44 0.46 0.45 0.43 0.46 0.50 0.55 0.62
0.41 0.35 0.45 0.51 0.35 0.36 0.43 0.41 0.42 0.37 0.31 0.27 0.26 0.28 0.29 0.28 0.27 0.29 0.29 0.31 0.31 0.34 0.34 0.41 0.35 0.30 0.26 0.22 0.21 0.18 0.23 0.29 0.35 0.37 0.33 0.32 0.32 0.44 0.44 0.42 0.45 0.47 0.47 0.50 0.57
0.45 0.30 0.33 0.47 0.40 0.41 0.43 0.49 0.44 0.43 0.38 0.33 0.29 0.29 0.25 0.26 0.29 0.28 0.28 0.30 0.33 0.33 0.41 0.41 0.34 0.30 0.24 0.25 0.26 0.22 0.20 0.23 0.28 0.28 0.31 0.32 0.39 0.41 0.37 0.39 0.39 0.41 0.44 0.49 0.62
0.47 0.37 0.48 0.28 0.41 0.48 0.50 0.50 0.44 0.42 0.45 0.43 0.36 0.37 0.31 0.28 0.28 0.27 0.31 0.33 0.39 0.40 0.45 0.37 0.39 0.43 0.36 0.34 0.34 0.29 0.26 0.22 0.21 0.24 0.27 0.32 0.33 0.41 0.41 0.39 0.39 0.42 0.44 0.53 0.62
0.40 0.40 0.48 0.42 0.39 0.33 0.32 0.33 0.42 0.42 0.46 0.45 0.43 0.40 0.36 0.35 0.35 0.32 0.33 0.32 0.31 0.34 0.37 0.47 0.45 0.48 0.42 0.42 0.40 0.36 0.36 0.30 0.23 0.20 0.24 0.27 0.29 0.38 0.42 0.42 0.40 0.39 0.43 0.47 0.58
0.53 0.53 0.43 0.34 0.34 0.34 0.33 0.36 0.38 0.48 0.49 0.47 0.52 0.51 0.49 0.48 0.51 0.52 0.51 0.48 0.47 0.38 0.42 0.45 0.47 0.50 0.38 0.42 0.43 0.36 0.36 0.37 0.34 0.25 0.18 0.18 0.23 0.29 0.31 0.34 0.36 0.36 0.41 0.48 0.56
Wind_Speed
14 14 14 14 14 14 14 15 15 15 14 14 13 13 12 12 12 10 12 14 14 16 15 14 12 9 9 7 5 4 2 5 5 2 7 9 8 7 8 10 9 11 10 16 18
15 15 15 15 15 15 15 15 15 15 15 15 14 13 13 12 11 12 11 13 17 18 18 17 15 13 10 9 6 5 3 3 2 1 7 10 8 9 9 10 10 11 10 17 19
16 16 16 16 16 16 16 16 16 15 15 15 15 14 13 11 11 8 5 8 16 20 19 19 16 15 13 10 9 6 7 1 3 1 6 11 9 9 9 10 10 13 14 18 19
17 17 17 17 17 17 17 17 16 16 16 15 15 15 13 11 8 7 8 7 12 20 19 21 19 17 14 13 11 8 6 6 5 5 9 12 11 9 9 6 11 12 14 19 19
18 18 18 18 18 18 18 18 18 17 16 16 15 14 13 13 15 13 12 11 13 18 22 23 22 20 17 12 11 11 8 6 6 7 10 11 12 8 10 8 11 13 15 18 18
19 19 19 19 19 19 19 19 19 18 18 16 15 13 13 18 12 13 12 12 13 18 22 24 21 22 15 15 13 6 7 7 6 10 11 11 11 10 11 10 12 14 15 17 18
20 20 20 20 21 21 21 21 20 19 18 17 14 13 15 18 15 17 16 15 16 19 21 25 23 22 18 15 15 11 8 6 10 13 11 11 10 11 11 12 12 14 15 17 17
20 21 21 22 22 23 22 22 21 19 16 14 13 13 15 13 15 19 19 19 17 19 22 22 26 21 20 14 13 15 12 11 13 14 10 14 9 11 11 13 13 14 15 17 18
21 22 22 22 23 23 23 22 19 16 14 12 13 14 15 11 12 15 19 19 19 19 20 22 24 23 22 20 18 17 14 14 14 16 11 14 7 11 11 12 13 14 16 16 17
23 23 23 23 24 24 22 20 17 15 15 15 15 14 14 12 10 11 16 20 20 21 21 24 23 24 23 24 21 19 18 16 16 18 15 16 9 8 11 12 13 14 15 17 17
24 24 24 24 25 23 20 16 16 15 16 17 13 16 12 11 13 14 15 20 21 24 24 27 28 28 27 26 23 19 18 17 19 16 18 16 14 11 11 12 13 14 16 17 18
25 25 25 25 25 20 18 17 15 16 20 22 24 24 22 18 18 19 18 20 24 27 27 27 31 28 28 27 27 22 22 20 18 17 18 16 17 15 14 15 14 15 16 17 18
27 26 26 26 23 18 17 15 15 18 18 19 20 19 18 20 21 23 23 23 24 29 31 30 28 30 29 29 29 27 24 22 20 19 20 16 18 18 17 16 16 16 16 18 18
30 29 28 27 20 20 17 17 19 18 18 15 16 16 14 13 15 20 26 24 24 29 29 32 32 32 31 32 30 29 27 23 23 21 20 21 17 17 18 17 18 18 18 18 19
32 31 29 27 26 22 19 20 19 16 16 10 12 12 14 16 11 14 22 25 25 25 30 31 35 33 35 34 33 30 27 26 24 24 24 20 18 17 13 17 18 20 20 20 19
35 34 32 27 26 26 24 21 18 18 20 15 14 16 15 17 15 12 19 25 23 26 27 32 29 35 36 34 33 30 26 25 25 25 28 28 22 21 17 17 17 18 21 22 21
38 37 35 30 27 25 24 22 21 24 15 18 18 20 18 16 18 17 21 25 24 25 27 28 32 31 34 36 36 33 30 24 25 26 25 26 27 23 17 16 16 14 19 21 21
39 38 32 32 29 27 26 24 29 23 28 17 18 21 22 18 19 21 22 26 29 27 23 26 31 35 31 41 39 39 37 28 31 25 23 28 24 24 24 22 22 17 16 19 21
40 34 33 31 29 28 29 33 29 31 27 28 24 25 26 24 20 21 26 27 30 29 29 26 32 30 36 36 41 40 42 36 30 28 26 25 23 28 24 22 18 17 17 18 21
39 36 34 31 31 31 33 42 36 32 28 27 30 27 29 27 25 23 25 26 28 30 28 23 23 32 31 34 40 42 38 38 36 34 30 28 26 20 23 22 20 18 17 18 20
38 35 31 32 32 34 39 41 40 40 34 31 33 30 28 26 27 24 21 21 25 27 29 29 22 21 33 39 40 38 38 40 37 36 30 28 29 24 23 20 17 17 17 19 19
36 33 31 30 33 36 40 39 36 37 41 38 34 33 33 29 28 27 25 22 20 25 29 29 24 25 25 33 38 39 40 40 36 40 36 36 29 25 26 25 26 23 18 18 20
36 36 33 33 34 36 37 37 38 40 40 39 42 37 34 33 33 31 30 27 23 22 25 28 29 23 26 27 31 39 43 43 42 38 41 35 32 27 19 20 18 19 19 17 20
35 32 31 31 34 34 35 35 38 37 39 38 37 38 37 37 34 27 28 28 26 26 22 19 27 32 27 30 32 36 40 43 43 41 40 43 33 32 32 28 25 22 21 20 19
34 33 31 28 28 29 32 33 33 33 35 34 39 37 36 36 35 35 31 27 25 24 23 28 26 25 29 28 28 33 39 42 48 48 46 38 43 38 35 28 27 27 24 21 21
30 28 27 31 32 32 31 32 31 31 31 33 34 35 38 36 35 32 33 32 30 28 31 28 26 26 30 29 30 35 36 40 43 47 48 48 48 37 37 36 35 31 28 25 24
24 26 26 26 26 28 28 28 27 24 30 32 29 27 29 29 29 30 30 27 27 30 30 29 27 25 27 27 26 31 37 39 40 45 44 47 45 44 45 35 34 34 32 28 25
Wind_Direction
323 321 320 320 319 316 312 305 300 299 298 298 301 301 299 293 285 259 249 233 222 208 205 198 198 195 187 185 174 153 152 134 109 144 134 143 142 140 134 142 158 162 159 161 161
321 320 319 317 316 315 313 310 306 299 295 293 294 296 296 294 279 265 252 233 216 205 200 198 195 190 191 192 183 195 229 123 124 133 166 165 157 152 151 151 159 161 152 160 163
319 317 317 316 314 312 311 309 306 303 298 291 288 289 291 289 275 240 232 208 209 204 204 202 199 198 207 204 202 204 234 138 235 233 180 172 168 162 159 164 164 165 161 163 166
319 316 315 314 313 312 309 306 305 302 298 295 287 282 282 271 256 230 220 222 206 203 205 202 200 201 207 209 214 227 234 253 266 198 179 174 166 172 166 146 164 163 162 165 169
318 316 314 312 310 310 310 306 302 299 296 292 289 281 270 260 250 248 242 228 210 205 206 203 204 206 214 216 216 231 246 251 248 200 181 174 176 168 172 154 159 161 162 168 171
317 314 312 311 309 308 306 305 303 297 292 289 285 278 266 260 253 237 224 220 217 209 208 206 208 209 222 220 216 216 231 250 218 178 173 175 173 172 176 165 163 165 168 171 174
319 315 311 308 307 306 305 303 300 297 291 284 277 272 267 258 250 239 234 231 225 213 209 209 210 205 214 219 217 216 223 210 179 170 168 167 169 189 164 170 169 175 176 175 177
320 317 313 309 306 303 303 301 298 292 287 281 270 269 269 265 252 240 235 230 223 217 215 212 209 217 219 213 207 214 221 204 183 180 177 183 174 181 167 173 176 178 180 182 184
319 317 315 312 309 305 302 299 294 289 282 272 272 270 272 258 249 235 228 222 218 214 214 206 205 212 212 212 213 211 217 206 187 195 183 190 186 175 175 179 179 182 185 187 190
317 316 314 313 310 307 302 294 287 282 276 273 271 269 259 252 239 245 228 219 215 210 207 206 206 208 213 209 212 209 218 200 196 194 194 196 190 171 186 191 190 191 192 196 198
315 314 312 312 310 306 300 291 285 278 267 264 269 260 260 253 251 244 229 217 216 211 212 208 209 211 208 210 217 218 211 208 202 189 199 203 209 197 200 202 203 201 203 203 206
311 311 309 309 309 301 295 290 287 285 283 268 263 261 259 259 257 241 227 220 218 216 214 210 218 214 216 215 219 224 216 213 198 198 211 212 220 221 214 216 213 211 211 211 210
307 307 306 306 301 292 291 283 289 291 279 275 260 257 253 243 246 241 225 225 221 220 216 220 219 216 215 217 218 219 219 214 211 208 219 226 228 229 224 223 221 221 219 216 215
302 301 302 302 286 292 281 277 285 288 280 263 256 249 240 240 248 240 225 224 227 224 220 225 220 215 217 220 216 221 218 222 217 211 220 217 235 227 225 224 225 223 223 221 220
299 297 295 292 282 277 276 279 279 272 275 257 239 234 234 238 257 240 223 221 226 226 220 223 220 216 220 218 216 220 219 223 229 220 228 209 231 238 226 228 228 227 225 225 225
296 294 291 282 275 272 270 271 263 260 257 250 237 232 233 239 244 243 225 224 231 229 229 229 223 224 223 219 218 217 228 222 226 226 229 228 224 231 226 233 238 235 229 226 224
294 291 285 274 270 268 264 258 254 250 256 244 239 232 239 240 239 232 222 218 222 222 225 227 224 223 221 219 214 213 213 214 220 224 231 222 230 230 236 230 241 251 227 224 223
294 289 278 270 265 261 254 248 249 255 240 248 244 234 241 237 243 233 226 226 226 227 230 226 225 221 218 219 213 214 214 219 219 224 227 230 231 231 235 246 251 243 233 221 219
294 284 276 269 260 252 246 244 250 249 250 246 239 241 240 238 247 236 234 231 226 226 230 228 233 222 222 220 217 214 219 222 234 231 238 230 230 239 237 240 240 236 227 221 222
290 283 273 266 256 248 247 248 247 251 249 245 239 239 239 235 237 235 231 234 231 225 229 233 237 227 218 220 220 222 219 220 226 233 229 233 234 225 223 229 233 228 228 225 224
286 280 271 264 252 247 247 246 246 246 245 244 240 240 238 238 238 234 237 229 227 221 226 228 231 226 220 218 217 216 223 221 228 228 235 234 234 225 232 233 238 233 232 229 227
285 277 271 261 255 250 249 248 250 246 240 242 244 242 239 235 235 232 232 229 225 226 220 222 227 232 227 222 223 221 222 221 224 227 234 241 240 232 231 236 238 241 239 237 238
284 279 271 260 256 251 250 247 246 246 240 239 237 237 236 236 236 238 234 231 237 230 225 220 227 227 230 223 219 226 224 225 228 232 231 232 233 233 221 225 231 231 240 249 245
281 277 268 259 255 254 254 252 248 242 241 239 238 234 232 231 230 234 229 227 229 227 228 229 226 226 229 230 227 224 227 229 229 231 233 237 238 231 230 233 238 241 246 254 241
275 270 264 260 254 254 252 251 248 243 239 235 234 233 227 228 227 226 229 225 223 218 221 222 230 230 234 240 235 232 229 229 232 235 236 237 236 234 235 237 240 246 249 249 241
272 269 264 259 255 253 247 243 242 240 237 234 231 228 229 228 228 228 228 228 228 226 226 224 232 236 240 239 241 243 237 235 234 235 238 239 241 239 238 241 243 243 246 247 241
273 266 261 257 250 247 244 242 237 239 235 230 234 232 230 226 229 228 229 229 227 225 225 226 226 228 238 237 244 242 239 240 238 234 235 236 239 239 239 243 240 239 239 241 240